Location: Forst
(46.9333°N, 15.4333°E)
Time: 07:28:54
(UTC+00:00)

Lacrosse 5 rocket - Pass Details

Date: 16 April 2021
Orbit: 460 x 634 km, 57.0° (Epoch: 12 May)

Event Time Altitude Azimuth Distance (km) Brightness Sun altitude
Rises 22:57:55 0° 308° (NW) 2,804 5.4 -32.6°
Reaches altitude 10° 23:00:14 10° 316° (NW) 1,930 4.6 -32.6°
Enters shadow 23:01:52 21° 327° (NNW) 1,372 3.8 -32.6°
